Canby, MN

12:07 PM CST on January 20, 2017 (GMT -0600)
Canby

Weather History for KCNB - January, 2012

Change the Weather History Date:

Monday, January 23, 2012

  Actual Average (KMML) Record (KMML)
Temperature  
Mean Temperature 22 °F -  
Max Temperature 25 °F 26 °F 59 °F (1981)
Min Temperature 20 °F 6 °F -23 °F (1963)
Degree Days  
Heating Degree Days 42    
Moisture  
Dew Point 20 °F    
Average Humidity 89    
Maximum Humidity 99    
Minimum Humidity 80    
Precipitation  
Precipitation 0.00 in - - ()
Sea Level Pressure  
Sea Level Pressure 29.75 in    
Wind  
Wind Speed 13 mph (NW)    
Max Wind Speed 21 mph    
Max Gust Speed 28 mph    
Visibility 6 miles    
Events Snow    
Averages and records for this station are not official NWS values.
T = Trace of Precipitation, MM = Missing Value Source: NWS Daily Summary

Daily Weather History Graph

Daily Weather History Graph

Search for Another Location

Airport or City:

Trip Planner

Search our weather history database for the weather conditions in past years. The results will help you decide how hot, cold, wet, or windy it might be!

Date:

Astronomy

Jan. 23, 2012 Rise Set
Actual Time 7:53 AM CST 5:20 PM CST
Civil Twilight 7:21 AM CST 5:52 PM CST
Nautical Twilight 6:46 AM CST 6:28 PM CST
Astronomical Twilight 6:11 AM CST 7:02 PM CST
Moon 7:47 AM CST (1/23) 6:13 PM CST (1/23)
Length of Visible Light 10h 30m
Length of Day
9h 26m
New Moon, 0% of the Moon is Illuminated
Jan 23
New Moon
Jan 30
First Quarter
Feb 7
Full
Feb 14
Last Quarter
Feb 21
New

Hourly Weather History & Observations

Time (CST) Temp. Windchill Dew Point Humidity Pressure Visibility Wind Dir Wind Speed Gust Speed Precip Events Conditions
12:16 AM 24.4 °F 16.5 °F 23.9 °F 98% 29.56 in 3.0 mi NW 6.9 mph - N/A   Overcast
12:36 AM 24.4 °F 14.9 °F 23.9 °F 98% 29.56 in 2.5 mi NW 9.2 mph - N/A Snow Light Snow
12:56 AM 24.6 °F 14.4 °F 24.3 °F 99% 29.57 in 2.5 mi NW 10.4 mph - N/A Snow Light Snow
1:16 AM 24.8 °F 16.1 °F 24.3 °F 98% 29.57 in 3.0 mi NW 8.1 mph - N/A Snow Light Snow
1:36 AM 24.8 °F 15.3 °F 23.9 °F 96% 29.58 in 3.0 mi NW 9.2 mph - N/A Snow Light Snow
1:56 AM 24.8 °F 16.9 °F 23.9 °F 96% 29.59 in 3.0 mi NW 6.9 mph - N/A Snow Light Snow
2:16 AM 25.2 °F 15.1 °F 24.3 °F 96% 29.60 in 3.0 mi NW 10.4 mph - N/A Snow Light Snow
2:36 AM 25.5 °F 16.2 °F 24.4 °F 96% 29.61 in 3.0 mi NW 9.2 mph - N/A Snow Light Snow
2:55 AM 25.5 °F 15.5 °F 24.4 °F 96% 29.61 in 3.0 mi NW 10.4 mph - N/A Snow Light Snow
3:16 AM 25.5 °F 15.5 °F 24.6 °F 96% 29.62 in 1.8 mi NW 10.4 mph - N/A Snow Light Snow
3:36 AM 25.5 °F 13.8 °F 24.4 °F 96% 29.62 in 1.8 mi NW 13.8 mph - N/A Snow Light Snow
3:56 AM 24.1 °F 10.1 °F 22.5 °F 94% 29.63 in 2.5 mi WNW 18.4 mph - N/A Snow Light Snow
4:16 AM 23.5 °F 9.4 °F 21.2 °F 91% 29.63 in 3.0 mi WNW 18.4 mph 24.2 mph N/A Snow Light Snow
4:56 AM 23.7 °F 10.5 °F 21.2 °F 90% 29.64 in 5.0 mi NW 16.1 mph 26.5 mph N/A   Overcast
5:16 AM 23.5 °F 9.0 °F 21.2 °F 91% 29.65 in 5.0 mi NW 19.6 mph 27.6 mph N/A Snow Light Snow
5:36 AM 23.0 °F 9.2 °F 21.7 °F 95% 29.66 in 4.0 mi NW 17.3 mph 25.3 mph N/A   Overcast
6:16 AM 22.8 °F 8.9 °F 21.7 °F 96% 29.67 in 5.0 mi NW 17.3 mph 21.9 mph N/A   Overcast
6:36 AM 22.8 °F 9.9 °F 21.6 °F 95% 29.68 in 7.0 mi NW 15.0 mph - N/A   Overcast
7:16 AM 22.6 °F 8.3 °F 21.2 °F 94% 29.69 in 7.0 mi NW 18.4 mph 23.0 mph N/A   Overcast
7:56 AM 22.3 °F 8.2 °F 20.7 °F 93% 29.71 in 7.0 mi NW 17.3 mph 23.0 mph N/A   Overcast
8:15 AM 22.1 °F 10.0 °F 20.3 °F 93% 29.71 in 5.0 mi NW 12.7 mph - N/A   Overcast
8:36 AM 21.9 °F 7.3 °F 19.8 °F 91% 29.72 in 5.0 mi NW 18.4 mph 23.0 mph N/A   Overcast
8:56 AM 21.2 °F 7.8 °F 19.4 °F 93% 29.73 in 4.0 mi NW 15.0 mph 20.7 mph N/A   Overcast
9:16 AM 21.0 °F 5.4 °F 19.0 °F 92% 29.73 in 4.0 mi NW 20.7 mph - N/A   Overcast
9:36 AM 21.0 °F 7.1 °F 18.9 °F 91% 29.74 in 3.0 mi NW 16.1 mph 25.3 mph N/A Snow Light Snow
9:56 AM 20.8 °F 7.3 °F 19.0 °F 93% 29.75 in 2.5 mi NW 15.0 mph 19.6 mph N/A   Overcast
10:16 AM 20.8 °F 6.8 °F 18.9 °F 92% 29.76 in 4.0 mi NW 16.1 mph 25.3 mph N/A   Overcast
10:35 AM 20.8 °F 7.9 °F 18.9 °F 92% 29.76 in 3.0 mi NW 13.8 mph - N/A   Overcast
10:56 AM 20.8 °F 6.4 °F 19.0 °F 93% 29.77 in 2.5 mi NW 17.3 mph 20.7 mph N/A   Overcast
11:16 AM 21.0 °F 7.6 °F 19.2 °F 93% 29.77 in 4.0 mi WNW 15.0 mph 21.9 mph N/A   Overcast
11:36 AM 21.0 °F 7.1 °F 18.5 °F 90% 29.77 in 5.0 mi WNW 16.1 mph 23.0 mph N/A   Overcast
11:56 AM 21.2 °F 6.8 °F 18.3 °F 89% 29.77 in 7.0 mi WNW 17.3 mph 20.7 mph N/A   Overcast
12:16 PM 21.6 °F 8.8 °F 18.3 °F 87% 29.77 in 7.0 mi WNW 13.8 mph 23.0 mph N/A   Overcast
12:36 PM 21.6 °F 7.3 °F 17.6 °F 85% 29.77 in 7.0 mi NW 17.3 mph 21.9 mph N/A   Overcast
12:56 PM 21.7 °F 6.7 °F 17.2 °F 83% 29.77 in 10.0 mi WNW 19.6 mph 25.3 mph N/A   Overcast
1:15 PM 21.7 °F 7.5 °F 16.9 °F 82% 29.78 in 10.0 mi WNW 17.3 mph 24.2 mph N/A   Overcast
1:36 PM 22.1 °F 8.5 °F 16.9 °F 80% 29.79 in 10.0 mi WNW 16.1 mph 23.0 mph N/A   Overcast
1:55 PM 22.1 °F 8.5 °F 16.9 °F 80% 29.80 in 10.0 mi NW 16.1 mph 21.9 mph N/A   Overcast
2:36 PM 21.9 °F 8.7 °F 16.5 °F 80% 29.80 in 10.0 mi NW 15.0 mph - N/A   Overcast
2:56 PM 22.1 °F 9.5 °F 16.7 °F 80% 29.81 in 10.0 mi WNW 13.8 mph 19.6 mph N/A   Overcast
3:16 PM 21.9 °F 8.2 °F 16.7 °F 80% 29.82 in 10.0 mi WNW 16.1 mph - N/A   Overcast
3:36 PM 21.7 °F 8.0 °F 16.5 °F 80% 29.83 in 10.0 mi WNW 16.1 mph 24.2 mph N/A   Overcast
3:56 PM 21.6 °F 8.8 °F 16.3 °F 80% 29.83 in 10.0 mi WNW 13.8 mph 23.0 mph N/A   Overcast
4:15 PM 21.4 °F 8.0 °F 16.2 °F 80% 29.84 in 10.0 mi WNW 15.0 mph - N/A   Overcast
4:36 PM 21.4 °F 7.1 °F 16.5 °F 82% 29.85 in 10.0 mi WNW 17.3 mph 20.7 mph N/A   Overcast
4:56 PM 21.2 °F 8.3 °F 16.5 °F 82% 29.86 in 10.0 mi WNW 13.8 mph - N/A   Overcast
5:16 PM 21.2 °F 7.8 °F 16.5 °F 82% 29.88 in 10.0 mi WNW 15.0 mph 19.6 mph N/A   Overcast
5:36 PM 21.2 °F 7.3 °F 16.5 °F 82% 29.89 in 10.0 mi WNW 16.1 mph 21.9 mph N/A   Overcast
6:15 PM 21.2 °F 8.3 °F 17.2 °F 85% 29.91 in 10.0 mi WNW 13.8 mph - N/A   Overcast
6:36 PM 21.4 °F 9.7 °F 17.2 °F 84% 29.92 in 10.0 mi WNW 11.5 mph - N/A   Overcast
6:56 PM 21.6 °F 9.3 °F 17.6 °F 85% 29.93 in 10.0 mi WNW 12.7 mph - N/A   Overcast
7:16 PM 21.6 °F 10.6 °F 17.6 °F 85% 29.94 in 10.0 mi WNW 10.4 mph - N/A   Overcast
7:56 PM 21.6 °F 10.6 °F 17.8 °F 85% 29.95 in 10.0 mi WNW 10.4 mph - N/A   Overcast
8:16 PM 21.6 °F 10.6 °F 17.8 °F 85% 29.95 in 10.0 mi WNW 10.4 mph - N/A   Overcast
8:36 PM 21.6 °F 11.3 °F 18.0 °F 86% 29.95 in 10.0 mi NW 9.2 mph - N/A   Overcast
8:56 PM 21.6 °F 9.9 °F 18.0 °F 86% 29.95 in 10.0 mi WNW 11.5 mph - N/A   Overcast
9:16 PM 21.7 °F 9.0 °F 17.6 °F 84% 29.95 in 10.0 mi NW 13.8 mph - N/A   Overcast
9:36 PM 21.6 °F 11.3 °F 18.1 °F 87% 29.95 in 10.0 mi NW 9.2 mph - N/A   Overcast
9:56 PM 21.7 °F 10.2 °F 18.1 °F 86% 29.96 in 10.0 mi NW 11.5 mph 17.3 mph N/A   Overcast
10:16 PM 21.6 °F 12.1 °F 18.1 °F 87% 29.96 in 10.0 mi NW 8.1 mph - N/A   Overcast
10:36 PM 21.2 °F 11.7 °F 17.6 °F 86% 29.96 in 10.0 mi NW 8.1 mph - N/A   Overcast
10:56 PM 21.2 °F 9.5 °F 17.6 °F 86% 29.98 in 10.0 mi NW 11.5 mph - N/A   Overcast
11:16 PM 21.2 °F 12.6 °F 17.6 °F 86% 29.98 in 10.0 mi NW 6.9 mph - N/A   Overcast
11:36 PM 21.2 °F 13.6 °F 17.6 °F 86% 29.99 in 10.0 mi NW 5.8 mph - N/A   Overcast
11:56 PM 21.2 °F 13.6 °F 17.6 °F 86% 29.99 in 10.0 mi NW 5.8 mph - N/A   Overcast